DW8199 Weather Reports


Display with metric or nautical units.
time (UTC)temp
F
wind
direction
speed
MPH
gust
MPH
rain 1hr
in
rain 24hr
in
rain mn
in
humidity
%
barometer
mb
20260504222537 73 142 4.0 12.0 0.00 0.00 0.00 51 1006.7
20260504221517 73 216 5.0 16.0 0.00 0.00 0.00 51 1006.9
20260504220517 73 231 6.0 21.0 0.00 0.00 0.00 50 1007.0
20260504215537 74 265 5.0 12.0 0.00 0.00 0.00 50 1007.0
20260504214517 74 237 4.0 14.0 0.00 0.00 0.00 50 1007.1
20260504213537 74 189 4.0 13.0 0.00 0.00 0.00 49 1007.2
20260504212516 74 253 4.0 14.0 0.00 0.00 0.00 50 1007.1
20260504211517 74 233 4.0 11.0 0.00 0.00 0.00 51 1007.1
20260504210536 73 257 4.0 11.0 0.00 0.00 0.00 51 1007.0
20260504205517 73 238 4.0 7.0 0.00 0.00 0.00 50 1007.0
20260504204516 74 249 5.0 13.0 0.00 0.00 0.00 49 1007.0
20260504203517 75 230 4.0 15.0 0.00 0.00 0.00 49 1007.1
20260504202516 74 233 4.0 15.0 0.00 0.00 0.00 50 1007.1
20260504201517 74 230 4.0 10.0 0.00 0.00 0.00 50 1007.1
20260504200517 73 263 5.0 13.0 0.00 0.00 0.00 51 1007.1
20260504195516 73 235 2.0 10.0 0.00 0.00 0.00 50 1007.3
20260504194517 74 230 4.0 11.0 0.00 0.00 0.00 50 1007.5
20260504193517 73 252 3.0 13.0 0.00 0.00 0.00 51 1007.8
20260504192517 73 218 4.0 12.0 0.00 0.00 0.00 51 1007.8
20260504191517 73 211 6.0 14.0 0.00 0.00 0.00 50 1008.0
20260504190517 73 234 4.0 10.0 0.00 0.00 0.00 51 1008.1
20260504185557 72 254 4.0 10.0 0.00 0.00 0.00 52 1008.0
20260504184516 72 240 4.0 9.0 0.00 0.00 0.00 53 1008.0
20260504183537 72 235 4.0 13.0 0.00 0.00 0.00 52 1008.0
20260504182516 72 223 5.0 16.0 0.00 0.00 0.00 51 1008.3
20260504181516 71 228 4.0 12.0 0.00 0.00 0.00 52 1008.3
20260504180516 71 244 4.0 10.0 0.00 0.00 0.00 51 1008.4
20260504175516 71 171 4.0 14.0 0.00 0.00 0.00 51 1008.5
20260504174516 70 217 4.0 13.0 0.00 0.00 0.00 52 1008.5
20260504173516 71 250 5.0 11.0 0.00 0.00 0.00 51 1008.7
20260504172517 70 264 4.0 12.0 0.00 0.00 0.00 51 1008.7
20260504171517 70 222 4.0 13.0 0.00 0.00 0.00 51 1008.9
20260504170516 70 252 5.0 15.0 0.00 0.00 0.00 50 1008.9
20260504150516 64 241 3.0 12.0 0.00 0.00 0.00 55 1010.3
20260504140516 60 243 3.0 7.0 0.00 0.00 0.00 58 1010.7
20260504130516 57 219 2.0 7.0 0.00 0.00 0.00 60 1010.8
20260504110516 51 244 2.0 8.0 0.00 0.00 0.00 63 1010.6
20260504100516 52 97 2.0 7.0 0.00 0.00 0.00 60 1010.9
20260504081516 53 74 0.0 3.0 0.00 0.00 0.00 58 1011.8
20260504080516 53 228 1.0 4.0 0.00 0.00 0.00 57 1012.1
20260504050515 51 103 0.0 2.0 0.00 0.00 0.00 64 1013.8
20260504045516 51 118 0.0 1.0 0.00 0.00 0.00 64 1013.9
20260504044515 51 0.0 1.0 0.00 0.00 0.00 64 1014.0
20260504043515 51 0.0 2.0 0.00 0.00 0.00 63 1013.9
20260504042516 51 79 0.0 2.0 0.00 0.00 0.00 62 1013.8
20260504041516 52 263 0.0 1.0 0.00 0.00 0.00 62 1014.0
20260504040516 53 0.0 0.0 0.00 0.00 0.00 60 1014.1
20260504035515 53 0.0 2.0 0.00 0.00 0.00 59 1014.0
20260504034515 53 210 0.0 1.0 0.00 0.00 0.00 58 1014.0
20260504033516 53 233 1.0 4.0 0.00 0.00 0.00 58 1014.1
20260504032516 53 228 0.0 2.0 0.00 0.00 0.00 58 1014.1
20260504031515 54 224 0.0 4.0 0.00 0.00 0.00 57 1014.2
20260504030515 54 268 0.0 4.0 0.00 0.00 0.00 56 1014.3
20260504025515 54 226 1.0 4.0 0.00 0.00 0.00 56 1014.3
20260504024515 54 233 1.0 4.0 0.00 0.00 0.00 55 1014.4
20260504023536 54 216 1.0 3.0 0.00 0.00 0.00 55 1014.4
20260504022515 54 248 1.0 6.0 0.00 0.00 0.00 55 1014.5
20260504021516 54 228 2.0 7.0 0.00 0.00 0.00 54 1014.5
20260504020515 53 252 2.0 9.0 0.00 0.00 0.00 56 1014.4
20260504015515 52 224 0.0 3.0 0.00 0.00 0.00 57 1014.3
20260504014515 51 259 1.0 6.0 0.00 0.00 0.00 58 1014.0
20260504013515 52 80 0.0 1.0 0.00 0.00 0.00 58 1013.7
20260504012515 52 0.0 1.0 0.00 0.00 0.00 54 1013.6
20260504011515 53 80 1.0 1.0 0.00 0.00 0.00 54 1013.7
20260504010535 53 80 1.0 2.0 0.00 0.00 0.00 52 1013.7
20260504005516 53 55 0.0 1.0 0.00 0.00 0.00 52 1013.7
20260504004515 54 100 0.0 1.0 0.00 0.00 0.00 52 1013.7
20260504003515 55 106 0.0 1.0 0.00 0.00 0.00 52 1013.6
20260504002515 56 109 0.0 1.0 0.00 0.00 0.00 49 1013.5
20260504001514 56 0.0 2.0 0.00 0.00 0.00 49 1013.5
20260504000515 57 261 0.0 2.0 0.00 0.00 0.00 46 1013.5
20260503235515 57 328 0.0 3.0 0.00 0.00 0.00 45 1013.6
20260503234515 57 252 1.0 6.0 0.00 0.00 0.00 44 1013.7
20260503233515 58 211 1.0 5.0 0.00 0.00 0.00 44 1013.8
20260503232515 58 237 1.0 4.0 0.00 0.00 0.00 44 1013.9
20260503231517 58 217 2.0 7.0 0.00 0.00 0.00 44 1013.9
20260503230517 58 243 3.0 9.0 0.00 0.00 0.00 42 1014.0
20260503225517 59 238 2.0 6.0 0.00 0.00 0.00 44 1014.0
20260503224517 59 234 1.0 9.0 0.00 0.00 0.00 42 1014.1
20260503223516 59 263 3.0 10.0 0.00 0.00 0.00 42 1014.2